Regional Weather Roundup
Issued by NWS Cleveland, OH

Home | Current Version | Previous Version | Graphics & Text | Print | Product List | Glossary On
Versions: 1 2 3 4 5 6 7 8 9 10 11 12 13 14 15 16 17 18 19 20 21 22 23 24 25 26 27 28 29 30 31 32 33 34 35 36 37 38 39 40 41 42 43 44 45 46 47 48 49 50
908
ASUS41 KCLE 171912
RWRCLE
OHIO REGIONAL WEATHER ROUNDUP
NATIONAL WEATHER SERVICE WILMINGTON, OH
200 PM EST SUN DEC 17 2017

NOTE: "FAIR" INDICATES FEW OR NO CLOUDS BELOW 12,000 FEET WITH NO
SIGNIFICANT WEATHER AND/OR OBSTRUCTIONS TO VISIBILITY.

OHZ001>008-015>018-024>027-034-035-043-044-172000-
   NORTHWEST OHIO

CITY           SKY/WX    TMP DP  RH WIND       PRES   REMARKS
DEFIANCE       PTSUNNY   32  30  92 SE3       30.09F FOG
FINDLAY        CLOUDY    40  32  73 SW5       30.08F
TOLEDO EXPRESS FAIR      34  31  88 SE3       30.08F FOG
TOLEDO EXEC    PTSUNNY   34  29  82 S5        30.10F HAZE    WCI  30
LIMA           LGT RAIN  39  33  79 SW8       30.08S
$$

OHZ009>014-019>023-028>033-038-089-172000-
   NORTHEAST OHIO

CITY           SKY/WX    TMP DP  RH WIND       PRES   REMARKS
CLE-HOPKINS    CLOUDY    37  31  78 CALM      30.11F
CLE-LAKEFRONT  FAIR      36  28  73 SE3       30.09F
CUY CO. ARPT   CLOUDY    36  32  87 SE7       30.10F
LORAIN-ELYRIA  FAIR      36  27  69 CALM      30.09F
ASHTABULA      FAIR      31  27  85 SE5       30.12F WCI  26
AKRON-CANTON   CLOUDY    38  29  70 S8        30.08F
WOOSTER        FAIR      37  30  75 S7        30.09F
MANSFIELD      CLOUDY    39  31  72 S7        30.08F
YOUNGSTOWN     CLOUDY    37  28  70 SE5       30.09F
$$

OHZ042-051>053-060>062-070>072-077>081-172000-
  SOUTHWEST OHIO

CITY           SKY/WX    TMP DP  RH WIND       PRES   REMARKS
CINC-COVINGTON CLOUDY    46  33  60 S7        30.11F
CINC-LUNKEN    CLOUDY    46  33  60 S5        30.14F
HAMILTON       CLOUDY    45  33  63 CALM      30.14F
DAYTON         CLOUDY    39  35  86 SW7       30.12R
WRIGHT-PAT AFB CLOUDY    43  33  69 SW10      30.12R
DAYTON GENERAL CLOUDY    42  31  64 SW7       30.12R
WILMINGTON     CLOUDY    42  32  67 SW7       30.12R
$$

OHZ036-037-039>041-045>050-054>059-063>069-073>076-082>088-172000-
  CENTRAL AND SOUTHEAST OHIO

CITY           SKY/WX    TMP DP  RH WIND       PRES   REMARKS
COLUMBUS       CLOUDY    42  34  73 S6        30.11S
OSU AIRPORT    LGT RAIN  39  35  86 SW5       30.11R
BOLTON FIELD   CLOUDY    39  34  81 S6        30.13R
RICKENBACK AFB CLOUDY    41  33  72 SW6       30.12R
NEWARK         LGT RAIN  40  33  76 S5        30.10F
MARION         MIX PCPN  37  32  82 SW7       30.11S
LANCASTER      CLOUDY    41  33  73 SE5       30.11F
ZANESVILLE     CLOUDY    40  32  73 SE3       30.10F
NEW PHILLY     CLOUDY    39  30  70 CALM      30.11F
$$




USA.gov is the U.S. government's official web portal to all federal, state and local government web resources and services.